Simultaneous Nadir Overpasses (SNOs) Predictions

Prediction of SNOs between LANDSAT-8 and NOAA-19 Satellite Orbit:

Table of predicted SNOs for the next 14.0 days since TLE Epoch: 7/8/2023
Index Date (LANDSAT-8) Time (LANDSAT-8) Lat,Lon (LANDSAT-8) SZA (LANDSAT-8 ) Date (NOAA-19) Time (NOAA-19) Lat,Lon (NOAA-19) SZA (NOAA-19 ) Distance(km) Time Diff (sec)
1 07/10/2023 06:54:08 80.95, 113.96 60.52 07/10/2023 06:53:35 80.94, 113.86 60.49 2.06 33
2 07/10/2023 07:43:35 -80.95, -78.45 119.49 07/10/2023 07:44:28 -80.94, -78.44 119.47 0.24 53
3 07/12/2023 13:17:19 80.95, 18.19 60.81 07/12/2023 13:17:02 80.94, 18.04 60.78 2.87 17
4 07/12/2023 14:06:46 -80.95,-174.21 119.19 07/12/2023 14:07:55 -80.94,-174.22 119.17 0.57 69
5 07/14/2023 19:40:30 80.94, -77.69 61.12 07/14/2023 19:40:29 80.94, -77.86 61.10 2.98 1
6 07/17/2023 02:03:40 80.96,-173.32 61.50 07/17/2023 02:03:55 80.94,-173.45 61.49 2.74 15
7 07/19/2023 07:37:25 -80.93, -77.06 118.17 07/19/2023 07:36:19 -80.94, -77.13 118.20 1.39 66
8 07/19/2023 08:26:51 80.93, 90.58 61.84 07/19/2023 08:27:22 80.94, 90.50 61.86 1.70 31
9 07/21/2023 14:00:35 -80.93,-172.89 117.75 07/21/2023 13:59:45 -80.94,-172.75 117.75 2.54 50



Historial Predications of SNOs between LANDSAT-8 and NOAA-19
